Regional Weather Roundup
Issued by NWS Green Bay, WI

Home | Current Version | Previous Version | Graphics & Text | Print | Product List | Glossary Off
Versions: 1 2 3 4 5 6 7 8 9 10 11 12 13 14 15 16 17 18 19 20 21 22 23 24 25 26 27 28 29 30 31 32 33 34 35 36 37 38 39 40 41 42 43 44 45 46 47 48 49 50

000
ASUS43 KGRB 161100
RWRGRB

NORTH-CENTRAL AND NORTHEAST WISCONSIN REGIONAL WEATHER ROUNDUP
NATIONAL WEATHER SERVICE GREEN BAY WI
500 AM CST MON JAN 16 2017

WIZ005-009-010>012-018-019-161200-
NORTH CENTRAL WISCONSIN

CITY           SKY/WX    TMP DP  RH WIND       PRES   REMARKS
IRONWOOD       CLOUDY    16  13  88 CALM      30.15S
MANITOWISH WTR NOT AVBL
ARBOR VITAE    NOT AVBL
EAGLE RIVER    NOT AVBL
LAND O LAKES   NOT AVBL
RHINELANDER    CLOUDY     7   6  96 SW3       30.16F FOG
PHILLIPS       CLOUDY   N/A N/A N/A CALM      30.16S HAZE
ANTIGO         NOT AVBL
TOMAHAWK       NOT AVBL
MERRILL        CLOUDY    -5 -10  81 CALM        N/A
$$

WIZ013-073-161200-
NORTHEAST WISCONSIN

CITY           SKY/WX    TMP DP  RH WIND       PRES   REMARKS
IRON MOUNTAIN  CLOUDY    14   7  73 CALM      30.15S
MARINETTE      NOT AVBL
$$

WIZ017-030-035>037-045-161200-
CENTRAL WISCONSIN

CITY           SKY/WX    TMP DP  RH WIND       PRES   REMARKS
MEDFORD        NOT AVBL
WAUSAU         CLOUDY     2  -2  83 CALM      30.20F
MOSINEE        NOT AVBL
MARSHFIELD     CLOUDY    11   7  84 CALM      30.20R
WISC RAPIDS    CLOUDY    10   7  87 CALM      30.24S
STEVENS POINT  NOT AVBL
WAUPACA        NOT AVBL
SHAWANO        NOT AVBL
CLINTONVILLE   CLOUDY     5   1  85 CALM      30.24F
WAUTOMA        PTCLDY    12  10  92 CALM      30.26R
$$

WIZ038-039-048-051-161200-
FOX VALLEY

CITY           SKY/WX    TMP DP  RH WIND       PRES   REMARKS
NWS GREEN BAY  CLOUDY    18  14  84 SW5       30.25S
APPLETON       NOT AVBL
OSHKOSH        CLOUDY    19  14  81 S5        30.25S
FOND DU LAC    CLOUDY    21  14  74 S5        30.26S
$$

WIZ022-050-052-161200-
EAST CENTRAL WISCONSIN

CITY           SKY/WX    TMP DP  RH WIND       PRES   REMARKS
EPHRAIM        NOT AVBL
WASHINGTON ISL NOT AVBL
STURGEON BAY   CLOUDY    19  14  81 SW5       30.24F
MANITOWOC      NOT AVBL
SHEBOYGAN      CLOUDY    16  12  84 S3        30.26S
$$

LMZ563-521-522-541>543-161200-
LAKESHORE

STATION/POSITION TIME  TEMP    WIND        PRES    VSBY  WAVE
                       AIR SEA DIR/SP/G                  HT/PER
                 (UTC) (F)     (DEG/KT/KT) (MB)    (MI)  (FT/S)
SHEBOYGAN LKSHOR 1000   26     210/  3/  4 1025.8F
KEWAUNEE LKSHORE 1030   21     310/  4/  5 1023.7F
NORTHPORT PIER   1040   25     230/  3/  9 1023.4S
SISTER BAY LKSHO 1020   23     260/ 10/ 13   N/A
MENOMINEE LKSHOR 1030          210/  7/  9 1022.7F
$$



USA.gov is the U.S. government's official web portal to all federal, state and local government web resources and services.